Location: Unspecified
(40.7945°N, 111.1337°W)
Time: 23:38:54
(UTC-06:00)

Okean 3 - Pass Details

Date: 28 March 2019
Orbit: 577 x 600 km, 82.5° (Epoch: 13 October)

Event Time Altitude Azimuth Distance (km) Brightness Sun altitude
Exits shadow 04:42:19 16° 131° (SE) 1,572 5.8 -28.1°
Maximum altitude 04:44:34 24° 89° (E) 1,243 5.6 -27.7°
Drops below altitude 10° 04:48:02 10° 35° (NE) 1,945 6.9 -27.2°
Sets 04:50:34 0° 22° (NNE) 2,852 7.7 -26.7°
